Satellite-Ground Cal/Val Region Overpasses Predictions

Prediction of Satellite NPP Overpassing Cal/Val Region: PacNW

Region Location: (Latitude: 10.00, Longitude: 139.50) to (Latitude: 22.70, Longitude: 165.60).

Table of predicted overpasses for the next 14.0 days since TLE Epoch: 3/26/2022
Interval Starting Time Starting Location Ending Time Ending Location
1 03/26/2022 02:10:30 ( 19.47, 165.59) 03/26/2022 02:11:25 ( 22.69, 164.80)
2 03/26/2022 03:49:19 ( 10.02, 142.44) 03/26/2022 03:52:49 ( 22.35, 139.51)
3 03/26/2022 14:39:42 ( 22.65, 165.04) 03/26/2022 14:43:17 ( 10.03, 162.03)
4 03/26/2022 16:21:11 ( 22.70, 139.67) 03/26/2022 16:21:22 ( 22.05, 139.51)
5 03/27/2022 03:30:17 ( 10.05, 147.19) 03/27/2022 03:33:52 ( 22.67, 144.19)
6 03/27/2022 16:02:10 ( 22.67, 144.42) 03/27/2022 16:05:45 ( 10.05, 141.42)
7 03/28/2022 03:11:15 ( 10.02, 151.95) 03/28/2022 03:14:50 ( 22.64, 148.95)
8 03/28/2022 15:43:07 ( 22.70, 149.19) 03/28/2022 15:46:43 ( 10.02, 146.17)
9 03/29/2022 02:52:13 ( 10.05, 156.70) 03/29/2022 02:55:48 ( 22.68, 153.70)
10 03/29/2022 15:24:06 ( 22.66, 153.94) 03/29/2022 15:27:41 ( 10.04, 150.94)
11 03/30/2022 02:33:11 ( 10.03, 161.47) 03/30/2022 02:36:46 ( 22.65, 158.47)
12 03/30/2022 15:05:03 ( 22.69, 158.70) 03/30/2022 15:08:39 ( 10.01, 155.69)
13 03/31/2022 02:14:55 ( 12.76, 165.60) 03/31/2022 02:17:44 ( 22.68, 163.22)
14 03/31/2022 03:55:38 ( 10.01, 140.86) 03/31/2022 03:57:17 ( 15.83, 139.51)
15 03/31/2022 14:46:02 ( 22.65, 163.45) 03/31/2022 14:49:37 ( 10.03, 160.45)
16 04/01/2022 03:36:37 ( 10.04, 145.61) 04/01/2022 03:40:12 ( 22.67, 142.60)
17 04/01/2022 14:30:07 ( 11.70, 165.59) 04/01/2022 14:30:35 ( 10.06, 165.22)
18 04/01/2022 16:08:30 ( 22.67, 142.84) 04/01/2022 16:12:05 ( 10.05, 139.84)
19 04/02/2022 03:17:34 ( 10.02, 150.37) 04/02/2022 03:21:09 ( 22.64, 147.37)
20 04/02/2022 15:49:27 ( 22.69, 147.61) 04/02/2022 15:53:03 ( 10.01, 144.59)
21 04/03/2022 02:58:33 ( 10.06, 155.12) 04/03/2022 03:02:08 ( 22.68, 152.12)
22 04/03/2022 15:30:26 ( 22.66, 152.35) 04/03/2022 15:34:01 ( 10.04, 149.35)
23 04/04/2022 02:39:30 ( 10.04, 159.88) 04/04/2022 02:43:05 ( 22.66, 156.88)
24 04/04/2022 15:11:23 ( 22.68, 157.12) 04/04/2022 15:14:58 ( 10.06, 154.12)
25 04/05/2022 02:20:28 ( 10.01, 164.65) 04/05/2022 02:24:04 ( 22.70, 161.63)
26 04/05/2022 14:52:21 ( 22.70, 161.88) 04/05/2022 14:55:57 ( 10.02, 158.87)
27 04/06/2022 03:42:55 ( 10.00, 144.03) 04/06/2022 03:46:31 ( 22.68, 141.02)
28 04/06/2022 14:34:31 ( 18.44, 165.59) 04/06/2022 14:36:54 ( 10.04, 163.63)
29 04/06/2022 16:14:49 ( 22.65, 141.25) 04/06/2022 16:16:52 ( 15.44, 139.50)
30 04/07/2022 03:23:54 ( 10.04, 148.78) 04/07/2022 03:27:29 ( 22.66, 145.78)
31 04/07/2022 15:55:47 ( 22.67, 146.02) 04/07/2022 15:59:22 ( 10.05, 143.02)
32 04/08/2022 03:04:52 ( 10.02, 153.54) 04/08/2022 03:08:27 ( 22.65, 150.54)
